User: anonymous   Login
Location: Unspecified
(0.0000°N, 0.0000°E)
Time: 18:49:51
(UTC+00:00)
Language:

XW-2C - Orbit

View from above orbital plane
View from above orbital plane
View from above satellite
View from above satellite

Ground track
Ground track

The orbit data is extracted from the following two-line orbital elements,

1 40906U 15049H   18175.51663865  .00000738  00000-0  42712-4 0  9998
2 40906  97.4595 178.8735 0015311  11.2386 348.9185 15.15210023152603
Epoch (UTC): 24 June 2018 12:23:57
Eccentricity: 0.0015311
inclination: 97.4595°
perigee height: 510 km
apogee height: 531 km
right ascension of ascending node: 178.8735°
argument of perigee: 11.2386°
revolutions per day: 15.15210023
mean anomaly at epoch: 348.9185°
orbit number at epoch: 15260

The dashed part of the orbit path shows where the satellite is in the earth's shadow,  

DLR